Change the Weather History Date:

Wednesday, January 22, 2014

  Actual Average Record
Temperature  
Mean Temperature 44 °F -  
Max Temperature 48 °F 55 °F - ()
Min Temperature 40 °F 41 °F - ()
Degree Days  
Heating Degree Days 21    
Moisture  
Dew Point 38 °F    
Average Humidity 79    
Maximum Humidity 98    
Minimum Humidity 60    
Precipitation  
Precipitation 0.08 in 0.05 in - ()
Sea Level Pressure  
Sea Level Pressure 29.89 in    
Wind  
Wind Speed 8 mph ()    
Max Wind Speed 15 mph    
Max Gust Speed 24 mph    
Visibility 8.0 miles    
Events Rain    
T = Trace of Precipitation, MM = Missing Value Source: Averaged Metar Reports

Daily Weather History Graph

Daily Weather History Graph

Search for Another Location

Airport or City:

Trip Planner

Search our weather history database for the weather conditions in past years. The results will help you decide how hot, cold, wet, or windy it might be!

Date:

Astronomy

Jan. 22, 2014 Rise Set
Actual Time 8:11 AM CET 5:55 PM CET
Civil Twilight 7:41 AM CET 6:25 PM CET
Nautical Twilight 7:07 AM CET 6:59 PM CET
Astronomical Twilight 6:35 AM CET 7:31 PM CET
Moon No Moon Rise 11:00 AM CET (1/22)
Length of Visible Light 10h 43m
Length of Day
9h 44m
Waning Gibbous, 68% of the Moon is Illuminated
Jan 22
Waning Gibbous
Jan 24
Last Quarter
Jan 30
New
Feb 6
First Quarter
Feb 15
Full

Hourly Weather History & Observations

Time (CET) Temp. Windchill Dew Point Humidity Pressure Visibility Wind Dir Wind Speed Gust Speed Precip Events Conditions
12:00 AM 43 °F - 37 °F 74% 29.92 in 15 mi North 1.2 mph - -  
12:00 AM 42.8 °F 38.6 °F 35.6 °F 76% 29.92 in 6.2 mi NW 6.9 mph - N/A   Partly Cloudy
12:30 AM 42.8 °F 38.6 °F 35.6 °F 76% 29.92 in 6.2 mi NW 6.9 mph - N/A   Partly Cloudy
1:00 AM 42 °F - 37 °F 76% 29.91 in 12 mi North 4.6 mph - -   Scattered Clouds
1:00 AM 42.8 °F 38.6 °F 35.6 °F 76% 29.89 in 6.2 mi NNW 6.9 mph - N/A   Partly Cloudy
1:30 AM 42.8 °F 37.5 °F 35.6 °F 76% 29.89 in 6.2 mi NW 9.2 mph - N/A   Partly Cloudy
2:00 AM 42 °F - 37 °F 76% 29.89 in 14 mi North 5.8 mph - -   Clear
2:00 AM 42.8 °F 37.0 °F 35.6 °F 76% 29.89 in 6.2 mi NW 10.4 mph - N/A   Partly Cloudy
2:30 AM 42.8 °F 37.5 °F 35.6 °F 76% 29.89 in 6.2 mi NW 9.2 mph - N/A   Partly Cloudy
3:00 AM 43 °F - 36 °F 69% 29.88 in 12 mi NNW 11.5 mph - -  
3:00 AM 42.8 °F 39.3 °F 33.8 °F 70% 29.86 in 6.2 mi NW 5.8 mph - N/A   Partly Cloudy
3:30 AM 41.0 °F 35.2 °F 33.8 °F 76% 29.86 in 6.2 mi NW 9.2 mph - N/A   Partly Cloudy
4:00 AM 41 °F - 36 °F 77% 29.87 in 9 mi North 9.2 mph - -   Scattered Clouds
4:00 AM 41.0 °F 34.7 °F 33.8 °F 76% 29.86 in 6.2 mi NW 10.4 mph - N/A   Partly Cloudy
4:30 AM 41.0 °F 34.7 °F 33.8 °F 76% 29.86 in 6.2 mi NW 10.4 mph - N/A   Partly Cloudy
5:00 AM 41 °F - 36 °F 76% 29.85 in 11 mi North 9.2 mph - -  
5:00 AM 41.0 °F 35.2 °F 33.8 °F 76% 29.83 in 6.2 mi NW 9.2 mph - N/A   Partly Cloudy
5:30 AM 41.0 °F 35.2 °F 33.8 °F 76% 29.83 in 6.2 mi NW 9.2 mph - N/A   Partly Cloudy
6:00 AM 41 °F - 35 °F 73% 29.85 in 14 mi North 12.7 mph - -  
6:00 AM 41.0 °F 36.4 °F 33.8 °F 76% 29.83 in 6.2 mi NNW 6.9 mph - N/A   Partly Cloudy
6:30 AM 41.0 °F 35.2 °F 33.8 °F 76% 29.83 in 6.2 mi NW 9.2 mph - N/A   Scattered Clouds
7:00 AM 41 °F - 35 °F 73% 29.84 in 16 mi North 10.4 mph - -   Partly Cloudy
7:00 AM 41.0 °F 35.2 °F 33.8 °F 76% 29.83 in 6.2 mi NW 9.2 mph - N/A   Scattered Clouds
7:30 AM 41.0 °F 34.3 °F 33.8 °F 76% 29.83 in 6.2 mi NNW 11.5 mph - N/A   Scattered Clouds
8:00 AM 40 °F - 35 °F 77% 29.85 in 17 mi North 13.8 mph - -  
8:00 AM 41.0 °F 33.1 °F 33.8 °F 76% 29.83 in 6.2 mi NNW 15.0 mph - N/A   Scattered Clouds
8:30 AM 41.0 °F 33.5 °F 33.8 °F 76% 29.83 in 6.2 mi NNW 13.8 mph - N/A   Scattered Clouds
9:00 AM 43 °F - 36 °F 68% 29.86 in 19 mi North 13.8 mph - -  
9:00 AM 42.8 °F 36.6 °F 33.8 °F 70% 29.86 in 6.2 mi NNW 11.5 mph - N/A   Scattered Clouds
9:30 AM 42.8 °F 36.2 °F 33.8 °F 70% 29.86 in 6.2 mi NW 12.7 mph - N/A   Scattered Clouds
10:00 AM 44 °F - 36 °F 66% 29.87 in 15 mi North 11.5 mph - -   Scattered Clouds
10:00 AM 42.8 °F 36.2 °F 33.8 °F 70% 29.86 in 6.2 mi NNW 12.7 mph - N/A   Scattered Clouds
10:30 AM 44.6 °F 39.2 °F 33.8 °F 66% 29.86 in 6.2 mi NW 10.4 mph - N/A   Scattered Clouds
11:00 AM 46 °F - 37 °F 62% 29.88 in 16 mi North 9.2 mph - -  
11:00 AM 44.6 °F 39.2 °F 35.6 °F 71% 29.86 in 6.2 mi NW 10.4 mph - N/A   Scattered Clouds
11:30 AM 46.4 °F 41.9 °F 35.6 °F 66% 29.86 in 6.2 mi NNW 9.2 mph 24.2 mph N/A   Scattered Clouds
12:00 PM 48 °F - 38 °F 60% 29.88 in 16 mi North 9.2 mph - -  
12:00 PM 46.4 °F 41.5 °F 35.6 °F 66% 29.86 in 6.2 mi NNW 10.4 mph - N/A   Scattered Clouds
12:30 PM 46.4 °F 41.5 °F 35.6 °F 66% 29.86 in 6.2 mi NW 10.4 mph - N/A   Scattered Clouds
1:00 PM 47 °F - 40 °F 69% 29.88 in 13 mi North 10.4 mph - - Rain Light Rain
1:00 PM 46.4 °F 41.9 °F 37.4 °F 71% 29.86 in 6.2 mi NNW 9.2 mph - N/A Rain Light Rain
1:30 PM 46.4 °F 42.4 °F 39.2 °F 76% 29.86 in 6.2 mi NNW 8.1 mph - N/A Rain Light Rain
2:00 PM 46 °F - 42 °F 82% 29.87 in 8 mi North 10.4 mph - - Rain Light Rain
2:00 PM 46.4 °F 41.5 °F 39.2 °F 76% 29.86 in 5.0 mi NW 10.4 mph - N/A   Drizzle
2:30 PM 46.4 °F 42.4 °F 41.0 °F 81% 29.86 in 5.0 mi NW 8.1 mph - N/A   Drizzle
3:00 PM 46 °F - 43 °F 87% 29.86 in 9 mi North 8.1 mph - - Rain Light Rain
3:00 PM 46.4 °F 42.9 °F 41.0 °F 81% 29.86 in 5.6 mi NW 6.9 mph - N/A   Drizzle
3:30 PM 46.4 °F 42.4 °F 42.8 °F 87% 29.86 in 6.2 mi NNW 8.1 mph - N/A   Drizzle
4:00 PM 46 °F - 44 °F 90% 29.88 in 8 mi North 9.2 mph - - Rain Light Rain
4:00 PM 46.4 °F 43.5 °F 42.8 °F 87% 29.86 in 6.2 mi NNW 5.8 mph - N/A   Drizzle
4:30 PM 46.4 °F 42.9 °F 42.8 °F 87% 29.86 in 6.2 mi NNW 6.9 mph - N/A   Drizzle
5:00 PM 46 °F - 45 °F 93% 29.89 in 6 mi North 6.9 mph - - Rain Light Rain
5:00 PM 46.4 °F 42.4 °F 42.8 °F 87% 29.86 in 6.2 mi NW 8.1 mph - N/A   Drizzle
5:30 PM 46.4 °F 43.5 °F 42.8 °F 87% 29.89 in 6.2 mi NW 5.8 mph - N/A   Light Drizzle
6:00 PM 46 °F - 44 °F 90% 29.90 in 11 mi North 9.2 mph - - Rain Light Rain
6:00 PM 46.4 °F 42.4 °F 42.8 °F 87% 29.89 in 6.2 mi NW 8.1 mph - N/A   Light Drizzle
6:30 PM 46.4 °F 41.1 °F 42.8 °F 87% 29.92 in 6.2 mi NW 11.5 mph - N/A Rain Light Rain
7:00 PM 45 °F - 44 °F 95% 29.94 in 7 mi North 12.7 mph - - Rain Light Rain
7:00 PM 44.6 °F 38.4 °F 42.8 °F 93% 29.92 in 6.2 mi NW 12.7 mph - N/A Rain Light Rain
7:30 PM 44.6 °F 39.2 °F 41.0 °F 87% 29.92 in 6.2 mi NW 10.4 mph - N/A Rain Light Rain
8:00 PM 45 °F - 44 °F 92% 29.96 in 9 mi North 11.5 mph - - Rain Light Rain
8:00 PM 44.6 °F 39.2 °F 41.0 °F 87% 29.95 in 6.2 mi NNW 10.4 mph - N/A Rain Light Rain
8:30 PM 44.6 °F 39.7 °F 41.0 °F 87% 29.95 in 6.2 mi NW 9.2 mph - N/A Rain Light Rain
9:00 PM 45 °F - 44 °F 93% 29.97 in 7 mi North 10.4 mph - - Rain Light Rain
9:00 PM 44.6 °F 39.7 °F 41.0 °F 87% 29.95 in 6.2 mi NW 9.2 mph - N/A Rain Light Rain
9:30 PM 44.6 °F 40.2 °F 42.8 °F 93% 29.98 in 6.2 mi NW 8.1 mph - N/A Rain Light Rain
10:00 PM 45 °F - 45 °F 98% 29.99 in 6 mi North 9.2 mph - - Rain Light Rain
10:00 PM 44.6 °F 40.2 °F 42.8 °F 93% 29.98 in 5.6 mi NNW 8.1 mph - N/A Rain Light Rain
10:30 PM 44.6 °F 40.7 °F 42.8 °F 93% 29.98 in 5.6 mi NW 6.9 mph - N/A Rain Light Rain
11:00 PM 45 °F - 44 °F 94% 30.00 in 9 mi North 10.4 mph - - Rain Drizzle
11:00 PM 44.6 °F 39.7 °F 42.8 °F 93% 29.98 in 6.2 mi NW 9.2 mph - N/A Rain Light Rain
11:30 PM 44.6 °F 40.2 °F 42.8 °F 93% 29.98 in 6.2 mi NW 8.1 mph - N/A Rain Light Rain